Regional Weather Roundup
Issued by NWS

Home | Current Version | Previous Version | Text Only | Print | Product List | Glossary On
Versions: 1 2 3 4 5 6 7 8 9 10 11 12 13 14 15 16 17 18 19 20 21 22 23 24 25 26 27 28 29 30 31 32 33 34 35 36 37 38 39 40 41 42 43 44 45 46 47 48 49 50
000
ASUS43 KOAX 071910
RWRNE

WEATHER ROUNDUP FOR NEBRASKA
NATIONAL WEATHER SERVICE OMAHA NE
200 PM CDT TUE JUL 07 2015

NOTES: SATELLITE DATA IS BEING USED TO AUGMENT CLOUD COVER ABOVE
       12000 FEET.
       "FAIR" INDICATES FEW OR NO CLOUDS BELOW 12,000 FEET WITH NO
       SIGNIFICANT WEATHER AND/OR OBSTRUCTIONS TO VISIBILITY.

  * THESE STATIONS DO NOT REPORT WEATHER SUCH AS RAIN...SNOW OR FOG.

NEZ001>004-019>022-054>056-072000-
NEBRASKA PANHANDLE

CITY           SKY/WX    TMP DP  RH WIND       PRES   REMARKS
SCOTTSBLUFF    CLOUDY    68  55  63 SE10      30.15F HAZE
ALLIANCE       CLOUDY    66  54  65 S13       30.16F
CHADRON        CLOUDY    70  54  56 S15       30.12F
KIMBALL          N/A    N/A N/A N/A MISG        N/A
SIDNEY         PTSUNNY   70  49  47 S14G25    30.19F
$$

NEZ057>060-069>072-079>082-072000-
SOUTHWEST NEBRASKA

CITY           SKY/WX    TMP DP  RH WIND       PRES   REMARKS
NORTH PLATTE   SUNNY     74  49  41 MISG      30.17F
IMPERIAL       MOSUNNY   76  47  35 SE9       30.17F
LEXINGTON      MOSUNNY   73  52  48 E10       30.17F
MCCOOK         SUNNY     76  52  43 E12       30.16F
OGALLALA       PTSUNNY   73  51  45 SE9       30.16F
$$

NEZ005>010-023>029-035>040-094-072000-
NORTH CENTRAL NEBRASKA

CITY           SKY/WX    TMP DP  RH WIND       PRES   REMARKS
VALENTINE      MOSUNNY   74  54  49 VRB7      30.15F
AINSWORTH      MOSUNNY   73  55  54 E7        30.17S
BROKEN BOW     MOSUNNY   73  55  53 SE6       30.17F
O`NEILL        MOSUNNY   69  55  62 E3        30.19F
ORD            MOSUNNY   74  53  48 NE9       30.15F
THEDFORD       PTSUNNY   73  53  49 CALM      30.18F
$$

NEZ041-046>049-061>064-073>077-083>087-072000-
SOUTH CENTRAL NEBRASKA

CITY           SKY/WX    TMP DP  RH WIND       PRES   REMARKS
GRAND ISLAND   PTSUNNY   70  55  59 NE9       30.17F
AURORA         MOSUNNY   70  55  58 NE9       30.17S
HASTINGS       PTSUNNY   70  55  59 NE9       30.17F
HEBRON         SUNNY     71  48  44 NE13G20   30.14F
HOLDREGE       MOSUNNY   72  54  53 NE12      30.17F
KEARNEY *      MOSUNNY   70  54  56 NE8       30.17F
YORK           MOSUNNY   70  55  60 N14G22    30.16F
$$

NEZ011>018-030>034-042>045-072000-
NORTHEAST NEBRASKA

CITY           SKY/WX    TMP DP  RH WIND       PRES   REMARKS
NORFOLK        SUNNY     70  52  52 NE12G20   30.16F
ALBION         MOSUNNY   70  51  51 NE12      30.17F
BLAIR          SUNNY     69  50  51 NE10      30.14F
FREMONT        SUNNY     70  46  42 N8G17     30.16S
TEKAMAH        SUNNY     72  50  45 N16G22    30.14F
WAYNE          SUNNY     68  51  55 N8G16     30.17S
$$

NEZ050>053-065>068-078-088>093-072000-
SOUTHEAST NEBRASKA

CITY           SKY/WX    TMP DP  RH WIND       PRES   REMARKS
LINCOLN        SUNNY     72  50  45 NE13G21   30.15F
OMAHA EPPLEY   MOSUNNY   71  52  50 N13       30.13F
BEATRICE       SUNNY     69  50  51 N9G16     30.14F
FALLS CITY     SUNNY     71  53  52 N10G17    30.10F
NEBRASKA CITY  SUNNY     69  45  41 NE12G23   30.13F
PLATTSMOUTH    MOSUNNY   69  49  47 NE8       30.14F
$$

NEZ044-045-051>053-067-072000-
OMAHA AREA

CITY           SKY/WX    TMP DP  RH WIND       PRES   REMARKS
OMAHA EPPLEY   MOSUNNY   71  52  50 N13       30.13F
BLAIR          SUNNY     69  50  51 NE10      30.14F
FREMONT        SUNNY     70  46  42 N8G17     30.16S
MILLARD        SUNNY     69  51  52 MISG      30.13F
OFFUTT AFB     SUNNY     71  53  53 NE10      30.13F
PLATTSMOUTH    MOSUNNY   69  49  47 NE8       30.14F
WAHOO          FAIR      70  48  45 N13       30.15S
$$


USA.gov is the U.S. government's official web portal to all federal, state and local government web resources and services.